This is the latest recevied weather packets stored in our database for station/object KG5APU. If no packets are shown the sender has not sent any weather packets the latest 10 day(s).
| Time | Temp. | Humidity | Pressure | Rain* | Wind** | Luminosity | Snow |
|---|---|---|---|---|---|---|---|
| 1787846706 | 30.56° C | 66% | 1017.1 hPa | 0 mm | - | 596 W/m² | - |
| 1787846103 | 30.56° C | 67% | 1017.1 hPa | 0 mm | - | 568 W/m² | - |
| 1787845500 | 29.44° C | 71% | 1017 hPa | 0 mm | - | 536 W/m² | - |
| 1787844896 | 29.44° C | 72% | 1016.8 hPa | 0 mm | - | 511 W/m² | - |
| 1787844291 | 29.44° C | 71% | 1017 hPa | 0 mm | - | 480 W/m² | - |
| 1787843691 | 29.44° C | 73% | 1017 hPa | 0 mm | - | 449 W/m² | - |
| 1787843089 | 28.33° C | 74% | 1016.9 hPa | 0 mm | - | 419 W/m² | - |
| 1787842490 | 28.33° C | 74% | 1016.6 hPa | 0 mm | - | 388 W/m² | - |
| 1787841889 | 28.33° C | 74% | 1016.8 hPa | 0 mm | - | 355 W/m² | - |
| 1787841284 | 28.33° C | 74% | 1016.9 hPa | 0 mm | - | 323 W/m² | - |
| 1787840681 | 28.33° C | 75% | 1017 hPa | 0 mm | - | 289 W/m² | - |
| 1787840077 | 27.78° C | 76% | 1016.9 hPa | 0 mm | - | 255 W/m² | - |
| 1787839471 | 27.22° C | 78% | 1016.6 hPa | 0 mm | - | 222 W/m² | - |
| 1787838870 | 27.22° C | 77% | 1016.5 hPa | 0 mm | - | 192 W/m² | - |
| 1787838270 | 26.67° C | 78% | 1017.1 hPa | 0 mm | - | 167 W/m² | - |
| 1787837668 | 26.67° C | 79% | 1016.6 hPa | 0 mm | - | 144 W/m² | - |
| 1787837065 | 26.67° C | 80% | 1016.1 hPa | 0 mm | - | 117 W/m² | - |
| 1787836464 | 26.67° C | 79% | 1016 hPa | 0 mm | - | 98 W/m² | - |
| 1787835861 | 26.11° C | 80% | 1016.1 hPa | 0 mm | - | 80 W/m² | - |
| 1787835256 | 26.11° C | 81% | 1016.1 hPa | 0 mm | - | 62 W/m² | - |
| 1787834650 | 25.56° C | 82% | 1015.9 hPa | 0 mm | - | 46 W/m² | - |
| 1787834047 | 25° C | 84% | 1015.9 hPa | 0 mm | - | 34 W/m² | - |
| 1787833443 | 25° C | 84% | 1015.5 hPa | 0 mm | - | 23 W/m² | - |
| 1787832840 | 25° C | 84% | 1015.5 hPa | 0 mm | - | 12 W/m² | - |
| 1787832234 | 25° C | 84% | 1015.5 hPa | 0 mm | - | 6 W/m² | - |
* Rain latest hour (hover to see other rain measurements)
** Current wind speed in m/s (hover to see current wind gust speed)